Weather History for KRSL - December, 2012

Change the Weather History Date:

Wednesday, December 5, 2012

  Actual Average Record
Temperature  
Mean Temperature 48 °F -  
Max Temperature 62 °F 46 °F 71 °F (1989)
Min Temperature 35 °F 24 °F -1 °F (1950)
Degree Days  
Heating Degree Days 16    
Moisture  
Dew Point 20 °F    
Average Humidity 34    
Maximum Humidity 50    
Minimum Humidity 19    
Precipitation  
Precipitation 0.00 in - - ()
Sea Level Pressure  
Sea Level Pressure 30.08 in    
Wind  
Wind Speed 16 mph (South)    
Max Wind Speed 30 mph    
Max Gust Speed 39 mph    
Visibility 10 miles    
Events      
Averages and records for this station are not official NWS values.
T = Trace of Precipitation, MM = Missing Value Source: NWS Daily Summary

Daily Weather History Graph

Daily Weather History Graph

Search for Another Location

Airport or City:

Trip Planner

Search our weather history database for the weather conditions in past years. The results will help you decide how hot, cold, wet, or windy it might be!

Date:

Astronomy

Dec. 05, 2012 Rise Set
Actual Time 7:39 AM CST 5:13 PM CST
Civil Twilight 7:09 AM CST 5:42 PM CST
Nautical Twilight 6:36 AM CST 6:15 PM CST
Astronomical Twilight 6:03 AM CST 6:48 PM CST
Moon No Moon Rise 12:05 PM CST (12/5)
Length of Visible Light 10h 33m
Length of Day
9h 34m
Waning Gibbous, 59% of the Moon is Illuminated
Dec 5
Waning Gibbous
Dec 6
Last Quarter
Dec 13
New
Dec 19
First Quarter
Dec 28
Full

Hourly Weather History & Observations

Time (CST) Temp. Windchill Dew Point Humidity Pressure Visibility Wind Dir Wind Speed Gust Speed Precip Events Conditions
12:53 AM 37.9 °F 30.5 °F 18.0 °F 45% 30.27 in 10.0 mi South 11.5 mph - N/A   Clear
1:53 AM 37.9 °F 30.9 °F 18.0 °F 45% 30.26 in 10.0 mi SSW 10.4 mph - N/A   Clear
2:53 AM 35.1 °F 29.3 °F 18.0 °F 50% 30.26 in 10.0 mi South 6.9 mph - N/A   Clear
3:53 AM 39.0 °F 31.8 °F 18.0 °F 43% 30.25 in 10.0 mi South 11.5 mph - N/A   Clear
4:53 AM 36.0 °F 28.5 °F 17.1 °F 46% 30.23 in 10.0 mi South 10.4 mph - N/A   Clear
5:53 AM 37.0 °F 28.9 °F 18.0 °F 46% 30.24 in 10.0 mi South 12.7 mph - N/A   Clear
6:53 AM 39.0 °F 30.6 °F 18.0 °F 43% 30.24 in 10.0 mi South 15.0 mph - N/A   Clear
8:53 AM 45.0 °F 37.1 °F 21.0 °F 39% 30.21 in 10.0 mi South 19.6 mph 26.5 mph N/A   Clear
9:53 AM 50.0 °F - 21.9 °F 33% 30.20 in 10.0 mi South 18.4 mph 27.6 mph N/A   Clear
10:53 AM 53.1 °F - 21.9 °F 30% 30.16 in 10.0 mi South 21.9 mph 33.4 mph N/A   Clear
11:53 AM 60.1 °F - 19.9 °F 21% 30.12 in 10.0 mi South 29.9 mph 39.1 mph N/A   Clear
12:53 PM 62.1 °F - 19.0 °F 19% 30.07 in 10.0 mi South 28.8 mph 35.7 mph N/A   Clear
1:53 PM 62.1 °F - 19.0 °F 19% 30.02 in 10.0 mi South 21.9 mph 34.5 mph N/A   Clear
2:53 PM 62.1 °F - 19.0 °F 19% 29.98 in 10.0 mi South 29.9 mph 35.7 mph N/A   Clear
3:53 PM 61.0 °F - 19.0 °F 20% 29.96 in 10.0 mi South 25.3 mph 33.4 mph N/A   Clear
4:53 PM 57.0 °F - 21.0 °F 25% 29.94 in 10.0 mi South 19.6 mph 32.2 mph N/A   Clear
5:53 PM 53.1 °F - 21.0 °F 29% 29.94 in 10.0 mi South 24.2 mph - N/A   Clear
6:53 PM 50.0 °F - 21.0 °F 32% 29.94 in 10.0 mi South 19.6 mph - N/A   Clear
7:53 PM 50.0 °F - 21.0 °F 32% 29.93 in 10.0 mi South 19.6 mph 28.8 mph N/A   Clear
8:53 PM 48.0 °F - 21.0 °F 34% 29.92 in 10.0 mi South 18.4 mph - N/A   Clear
10:53 PM 48.0 °F - 21.9 °F 36% 29.87 in 10.0 mi South 19.6 mph - N/A   Clear
11:53 PM 46.9 °F - 23.0 °F 39% 29.85 in 10.0 mi South 18.4 mph - N/A   Clear